AirNav   Get a free Bose Revolve speaker with A20 purchase
 
 1045 users online  

4Y8 Para Field Airport
Yale, Michigan, USA

GOING TO YALE?


FAA INFORMATION EFFECTIVE 19 JULY 2018

Location

FAA Identifier: 4Y8
Lat/Long: 43-12-08.0800N / 082-45-14.0000W
43-12.134667N / 082-45.233333W
43.2022444 / -82.7538889
(estimated)
Elevation: 800 ft. / 244 m (estimated)
Variation: 06W (1985)
From city: 5 miles NE of YALE, MI
Time zone: UTC -4 (UTC -5 during Standard Time)
Zip code: 48097

Airport Operations

Airport use: Open to the public
Activation date: 03/1973
Control tower: no
ARTCC: CLEVELAND CENTER
FSS: LANSING FLIGHT SERVICE STATION
NOTAMs facility: LAN (NOTAM-D service available)
Attendance: UNATNDD
ARPT CLSD OCT - MAR & WHEN SNOW COVERD. CALL AMGR FOR RWY CONDITIONS.
Wind indicator: yes
Segmented circle: no

Airport Communications

CTAF: 122.9

Airport Services

Runway Information

Runway 6/24

Dimensions: 2500 x 65 ft. / 762 x 20 m
Surface: turf, in fair condition
Runway edge markings: RYS 06 & 24 DSPLCD THLDS MKD WITH CONES.
RUNWAY 6  RUNWAY 24
Latitude: 43-12.031333N43-12.238000N
Longitude: 082-45.476000W082-44.989333W
Traffic pattern: leftleft
Displaced threshold: 476 ft.200 ft.
Obstructions: 37 ft. trees, 274 ft. from runway, 50 ft. left of centerline, 7:1 slope to clear
APCH RATIO 20:1 AT DSPLCD THLD. 37 FT TREE 50 FT L 750 FT DSTC.
20 ft. trees, 60 ft. left and right of centerline
APCH RATIO 13:1 AT DSPLCD THLD, +20 FT TREES 260 FT DSTC, 60 FT L & R.

Airport Ownership and Management from official FAA records

Ownership: Privately-owned
Owner: RALPH P. KOHLITZ
39870 MAZUCHET DR
HARRISON TWP, MI 48045
Phone 313-320-2503
Manager: JEFFERY P. KOHLITZ
39748 CANNON DR
HARRISON TWP, MI 48045
Phone 313-320-2503

Airport Operational Statistics

Aircraft operations: 50/year *
100% transient general aviation
* for 12-month period ending 31 December 2014

Additional Remarks

ROLLING TERRAIN; RY SLOPES DOWNWARD AT BOTH ENDS. OPOSITE RY END NOT VSBL FM THLDS.

Instrument Procedures

There are no published instrument procedures at 4Y8.

Some nearby airports with instrument procedures:

77G - Marlette Airport (16 nm NW)
KPHN - St Clair County International Airport (20 nm SE)
D95 - Dupont-Lapeer Airport (24 nm W)
D98 - Romeo State Airport (26 nm S)
57D - Ray Community Airport (29 nm S)
 
Loc | Ops | Rwys | IFR | FBO | Links
Com | Nav | Svcs | Stats | Notes

City of Findlay
 
Area around 4Y8 (Para Field Airport)
 
Road maps at: MapQuest Bing Google
 
Aerial photo
No photo
 
Sectional chart

 
Airport distance calculator
Flying to Para Field Airport? Find the distance to fly.

From to 4Y8

Sunrise and sunset
Times for 22-Jul-2018
 Local
(UTC-4)
 Zulu
(UTC)
Morning civil twilight05:3909:39
Sunrise06:1210:12
Sunset21:0301:03
Evening civil twilight21:3601:36

Current date and time
Zulu (UTC)  22-Jul-2018 23:43:11
Local (UTC-4)  22-Jul-2018 19:43:11
 
METAR
KPHN 
20nm SE 
222316Z AUTO 30004KT 10SM OVC019 17/14 A2984 RMK AO2
CYZR 
23nm SE 
222311Z AUTO 31006KT 6SM BR OVC010 17/16 A2982 RMK SLP099 DENSITY ALT 1000FT
KD95 
24nm W 
222315Z AUTO 00000KT 10SM SCT035 SCT042 OVC050 18/14 A2985 RMK AO2 T01800141
KCFS 
34nm NW 
222315Z AUTO 00000KT 10SM SCT024 BKN030 OVC048 19/16 A2984 RMK AO2 T01890158
KMTC 
35nm S 
222255Z 33011KT 10SM SCT017 OVC022 18/16 A2983 RMK AO2A SCT017 V BKN SLP104 T01830155
KBAX 
36nm N 
222315Z AUTO 36009G17KT 3SM BR SCT009 OVC015 18/16 A2984 RMK AO2 T01750164
TAF
CYZR 
23nm SE 
221941Z 2220/2302 36012KT P6SM SCT008 OVC030 TEMPO 2220/2222 4SM -RA BR BKN008 OVC030 FM222200 01010KT 4SM -RA BR BKN006 OVC012 TEMPO 2222/2302 P6SM NSW SCT007 OVC012 RMK FCST BASED ON AUTO OBS. NXT FCST WILL BE ISSUED AT 230745Z
NOTAMs
Click for the latest NOTAMs
NOTAMs are issued by the DoD/FAA and will open in a separate window not controlled by AirNav.

 

 
 

Would you like to see your business listed on this page?

 If your business provides an interesting product or service to pilots, flight crews, aircraft, or users of the Para Field Airport, you should consider listing it here.  To start the listing process, click on the button below
 
Add a business
 

Other Pages about Para Field Airport

Page from the Michigan Airport Directory (PDF)
 
Update a link
 
Copyright © AirNav, LLC. All rights reserved. Privacy Policy  Contact